Temp
11 12 12 13 14 15 15 14 11 7 5 7 7 3 1 -2 -3 -3 -4 -5 -6 -6 -4 -3 -2 -1 -1 0 1 1 2 3 3 4 4 4 5 5 6 6 6 6 6 6
10 11 13 14 12 12 13 12 9 5 4 7 5 5 2 -1 -1 -2 -3 -4 -5 -7 -6 -4 -3 -2 -1 -1 -0 0 1 1 1 2 3 3 4 4 4 5 5 5 5 5
12 12 11 11 11 12 12 12 8 10 4 4 5 6 1 -0 -1 -3 -4 -4 -5 -6 -7 -4 -3 -2 -2 -1 -1 -1 0 0 1 1 2 2 2 3 3 3 3 4 4 4
12 11 11 11 12 13 11 12 10 6 8 11 6 13 5 3 -0 -2 -3 -5 -6 -7 -7 -6 -5 -4 -3 -2 -2 -1 -1 -0 0 0 1 1 2 2 2 2 2 3 3 3
11 10 10 11 12 13 12 10 9 8 11 9 6 9 12 4 1 1 -1 -4 -6 -7 -8 -8 -6 -5 -4 -4 -3 -2 -2 -1 -1 -1 -0 -0 1 1 1 1 1 1 1 2
12 9 12 12 13 12 8 9 8 9 10 9 13 11 15 4 5 4 -0 -4 -6 -8 -10 -8 -7 -6 -6 -5 -4 -4 -3 -2 -2 -2 -1 -1 -1 -0 -0 -0 -0 0 0 1
10 9 10 10 10 9 11 11 8 8 7 10 12 9 13 8 4 5 0 -4 -7 -9 -10 -9 -8 -7 -7 -6 -5 -5 -4 -3 -3 -3 -2 -2 -2 -2 -2 -1 -1 -1 -1 -1
9 9 10 10 11 9 10 12 11 10 10 12 7 9 13 -0 -3 -1 -2 -5 -8 -9 -10 -10 -9 -8 -8 -7 -6 -6 -5 -4 -4 -4 -3 -3 -3 -2 -2 -2 -2 -2 -2 -2
9 10 10 10 10 11 10 10 13 12 10 12 12 9 -2 -3 -3 -4 -5 -7 -8 -10 -11 -11 -9 -8 -8 -7 -7 -6 -6 -5 -5 -4 -4 -4 -4 -3 -3 -3 -3 -3 -3 -3
7 8 9 10 10 11 11 12 9 9 8 10 12 11 13 -1 -3 -4 -6 -7 -9 -10 -11 -12 -10 -9 -8 -8 -7 -7 -6 -6 -6 -5 -5 -5 -5 -5 -4 -4 -4 -4 -4 -4
5 6 6 8 9 10 10 11 12 12 11 12 12 13 2 3 -0 -5 -6 -8 -10 -11 -12 -12 -10 -9 -9 -8 -8 -8 -7 -7 -6 -6 -6 -6 -6 -6 -5 -5 -5 -5 -5 -5
4 5 7 7 5 4 8 12 12 10 11 12 13 12 -4 -3 -1 -5 -7 -9 -10 -11 -12 -11 -10 -10 -9 -9 -9 -8 -8 -8 -7 -7 -7 -7 -7 -6 -6 -6 -6 -6 -6 -6
3 5 6 5 3 3 4 6 7 11 10 10 10 11 -4 -3 -4 -6 -8 -9 -11 -12 -13 -13 -11 -10 -10 -9 -9 -9 -8 -8 -8 -8 -8 -8 -7 -7 -7 -7 -7 -7 -7 -7
1 4 6 9 9 8 5 6 6 7 7 9 11 8 -5 -5 -6 -7 -9 -10 -12 -13 -13 -11 -11 -11 -10 -10 -9 -9 -9 -9 -9 -9 -8 -8 -8 -8 -8 -8 -8 -8 -8 -8
2 4 3 3 3 4 4 7 6 5 7 8 9 7 -1 -5 -7 -8 -10 -12 -13 -14 -13 -12 -11 -10 -10 -10 -10 -10 -9 -9 -9 -9 -9 -9 -9 -9 -9 -9 -9 -9 -9 -9
-0 3 2 2 -0 1 2 2 6 7 7 5 1 3 -5 -6 -9 -10 -12 -13 -14 -14 -12 -12 -11 -11 -11 -10 -10 -10 -10 -10 -10 -10 -10 -10 -10 -10 -10 -10 -10 -10 -10 -10
1 1 1 4 -0 0 2 2 3 5 1 4 3 1 -6 -8 -10 -11 -13 -13 -13 -12 -11 -11 -11 -11 -10 -10 -10 -10 -10 -10 -10 -10 -10 -10 -10 -10 -10 -10 -11 -11 -11 -11
1 1 1 1 1 3 -2 -8 -6 -1 -5 -7 -7 -7 -8 -9 -11 -12 -12 -12 -11 -11 -12 -13 -12 -11 -11 -11 -10 -10 -11 -11 -11 -11 -11 -11 -11 -11 -11 -11 -12 -12 -12 -12
-1 0 -0 1 2 2 -6 -7 -5 -2 -3 -8 -8 -9 -12 -13 -13 -14 -12 -12 -11 -11 -12 -12 -11 -11 -11 -11 -11 -11 -11 -11 -11 -11 -11 -11 -12 -12 -12 -12 -12 -12 -12 -12
-2 -1 1 -1 2 4 -6 -9 -11 -11 1 -10 -11 -12 -12 -11 -9 -11 -13 -11 -11 -12 -12 -12 -12 -12 -12 -11 -11 -11 -12 -12 -12 -12 -12 -12 -12 -12 -12 -13 -13 -13 -13 -13
-1 -1 0 1 1 -2 -11 -12 -12 -1 -3 -12 -12 -11 -11 -9 -12 -14 -13 -12 -12 -12 -12 -12 -12 -12 -12 -12 -12 -12 -12 -13 -12 -12 -12 -12 -13 -13 -13 -14 -14 -14 -14 -14
-2 -1 -0 -1 -0 1 -16 -12 -7 -13 -14 -13 -13 -12 -13 -15 -14 -13 -13 -13 -12 -12 -12 -12 -13 -12 -12 -12 -12 -13 -13 -14 -13 -13 -13 -13 -14 -14 -14 -15 -15 -15 -16 -16
-5 -9 -5 -9 -8 -17 -18 -18 -17 -15 -14 -14 -12 -14 -13 -14 -14 -13 -13 -13 -13 -13 -13 -13 -13 -13 -13 -13 -13 -14 -14 -14 -14 -14 -14 -14 -15 -15 -16 -16 -16 -17 -17 -17
-12 -14 -11 -12 -15 -17 -19 -18 -16 -15 -13 -13 -12 -14 -12 -12 -13 -13 -13 -13 -13 -13 -13 -13 -13 -13 -14 -13 -14 -14 -14 -14 -15 -15 -15 -15 -16 -16 -16 -17 -18 -18 -18 -18
-13 -12 -13 -15 -17 -17 -18 -18 -15 -14 -13 -12 -13 -12 -12 -12 -13 -13 -13 -14 -13 -13 -13 -13 -13 -13 -13 -13 -14 -14 -15 -15 -15 -16 -16 -16 -17 -17 -18 -18 -18 -19 -20 -20
-16 -13 -10 -8 -13 -12 -17 -17 -15 -13 -13 -13 -12 -14 -14 -12 -13 -13 -13 -13 -13 -13 -13 -13 -13 -14 -14 -14 -15 -16 -16 -17 -17 -18 -18 -19 -20 -20 -20 -21 -20 -19 -21 -21
Height
1488 1487 1484 1482 1485 1485 1488 1493 1504 1526 1533 1531 1532 1543 1552 1557 1558 1559 1560 1561 1563 1564 1563 1562 1562 1561 1560 1561 1562 1562 1563 1564 1566 1567 1569 1571 1572 1573 1574 1576 1577 1577 1577 1577
1488 1481 1479 1484 1491 1492 1493 1498 1511 1530 1533 1528 1535 1537 1548 1553 1553 1555 1557 1559 1562 1563 1562 1562 1562 1561 1561 1561 1561 1561 1562 1563 1564 1565 1568 1569 1570 1571 1572 1573 1574 1575 1575 1575
1474 1474 1483 1486 1489 1492 1492 1492 1506 1502 1531 1535 1532 1531 1545 1548 1551 1553 1555 1557 1560 1560 1559 1561 1561 1561 1560 1560 1560 1561 1562 1562 1562 1564 1566 1567 1569 1570 1571 1572 1573 1573 1572 1572
1476 1477 1479 1482 1483 1485 1490 1491 1499 1513 1511 1503 1526 1490 1523 1533 1543 1548 1550 1552 1555 1555 1557 1558 1559 1559 1558 1560 1560 1560 1562 1562 1562 1563 1565 1567 1568 1569 1570 1571 1572 1572 1572 1571
1470 1473 1476 1478 1475 1480 1484 1493 1499 1506 1499 1505 1524 1509 1488 1526 1534 1533 1537 1544 1549 1552 1554 1555 1557 1558 1558 1559 1560 1560 1562 1562 1562 1564 1565 1567 1568 1569 1570 1570 1571 1571 1571 1571
1466 1472 1472 1470 1475 1480 1494 1498 1504 1506 1503 1501 1484 1497 1469 1510 1503 1509 1528 1536 1542 1547 1550 1552 1555 1556 1557 1559 1560 1561 1562 1562 1563 1565 1566 1567 1568 1569 1570 1570 1571 1571 1571 1571
1468 1470 1470 1472 1478 1484 1482 1486 1502 1505 1504 1486 1480 1496 1470 1485 1498 1500 1511 1527 1537 1543 1547 1550 1552 1555 1557 1558 1560 1561 1562 1563 1564 1565 1567 1568 1569 1569 1570 1571 1571 1571 1571 1571
1462 1467 1463 1462 1460 1469 1470 1468 1471 1479 1478 1471 1496 1479 1461 1502 1506 1507 1513 1524 1532 1538 1543 1547 1550 1553 1556 1558 1559 1561 1562 1564 1565 1566 1567 1568 1569 1570 1570 1571 1571 1571 1571 1571
1455 1450 1453 1455 1458 1461 1469 1464 1460 1466 1473 1462 1461 1474 1499 1506 1508 1511 1515 1523 1530 1535 1541 1544 1548 1551 1555 1557 1559 1561 1563 1564 1565 1567 1568 1569 1570 1570 1571 1571 1571 1571 1571 1571
1458 1454 1452 1453 1457 1457 1454 1458 1472 1472 1472 1464 1451 1457 1443 1495 1499 1509 1516 1522 1529 1534 1538 1542 1546 1550 1554 1557 1559 1560 1562 1564 1566 1567 1569 1569 1570 1570 1570 1571 1571 1571 1570 1570
1457 1456 1456 1454 1448 1446 1454 1450 1451 1453 1452 1445 1444 1435 1473 1472 1485 1501 1513 1521 1527 1532 1536 1541 1545 1549 1553 1556 1558 1560 1562 1564 1565 1567 1568 1569 1570 1570 1570 1570 1570 1569 1569 1569
1451 1451 1445 1448 1455 1456 1447 1437 1442 1444 1445 1440 1439 1434 1484 1485 1485 1498 1510 1520 1527 1532 1536 1540 1544 1549 1552 1555 1558 1560 1562 1564 1565 1567 1568 1569 1569 1569 1569 1569 1568 1568 1567 1567
1450 1444 1444 1452 1459 1458 1452 1448 1447 1438 1444 1436 1441 1435 1485 1485 1492 1500 1508 1517 1524 1530 1534 1539 1543 1547 1551 1554 1557 1560 1562 1564 1565 1566 1566 1567 1567 1567 1566 1566 1565 1565 1565 1564
1452 1442 1431 1415 1415 1425 1441 1440 1446 1443 1446 1433 1424 1441 1486 1488 1492 1499 1507 1514 1521 1526 1532 1537 1543 1547 1551 1554 1557 1559 1561 1563 1563 1564 1565 1565 1565 1564 1564 1563 1563 1562 1562 1561
1449 1442 1443 1438 1440 1436 1437 1428 1435 1441 1437 1433 1428 1437 1461 1476 1484 1494 1503 1511 1518 1525 1530 1536 1541 1546 1550 1553 1556 1558 1560 1561 1562 1562 1562 1562 1562 1562 1561 1561 1560 1560 1559 1559
1449 1437 1444 1440 1449 1446 1439 1439 1430 1427 1430 1436 1452 1451 1470 1478 1488 1496 1502 1508 1515 1522 1529 1536 1541 1545 1549 1553 1555 1557 1558 1559 1560 1560 1560 1560 1560 1559 1559 1559 1558 1558 1557 1556
1447 1444 1442 1427 1447 1448 1441 1431 1430 1428 1439 1435 1441 1444 1469 1480 1487 1495 1500 1508 1514 1521 1528 1536 1541 1545 1549 1552 1554 1556 1556 1557 1558 1558 1558 1558 1558 1558 1557 1557 1556 1555 1553 1552
1441 1442 1442 1443 1445 1430 1437 1454 1451 1440 1452 1455 1458 1462 1470 1479 1489 1498 1504 1508 1517 1522 1529 1536 1541 1545 1548 1550 1553 1554 1554 1555 1555 1556 1556 1556 1556 1555 1554 1553 1552 1550 1549 1547
1441 1439 1443 1438 1431 1423 1450 1454 1452 1441 1445 1459 1462 1470 1476 1483 1492 1502 1507 1512 1517 1524 1531 1537 1541 1544 1546 1548 1550 1551 1552 1553 1553 1553 1553 1552 1551 1551 1550 1549 1547 1545 1544 1542
1440 1438 1434 1440 1423 1408 1450 1459 1460 1459 1430 1461 1463 1470 1474 1480 1486 1500 1508 1514 1519 1525 1532 1537 1540 1543 1544 1546 1547 1549 1549 1550 1550 1549 1549 1548 1548 1547 1545 1544 1542 1540 1538 1535
1435 1435 1428 1428 1421 1432 1459 1460 1460 1439 1446 1465 1468 1471 1477 1480 1487 1498 1508 1515 1522 1527 1532 1536 1539 1541 1543 1544 1545 1546 1547 1547 1546 1546 1545 1544 1543 1541 1540 1537 1536 1533 1531 1528
1432 1427 1426 1433 1427 1417 1462 1460 1453 1468 1469 1469 1472 1475 1479 1483 1493 1502 1511 1517 1523 1528 1532 1536 1538 1540 1541 1542 1543 1543 1543 1542 1542 1541 1540 1539 1537 1535 1533 1530 1529 1526 1523 1520
1441 1452 1437 1454 1451 1468 1466 1466 1467 1469 1471 1473 1474 1480 1483 1490 1499 1507 1514 1520 1524 1529 1532 1535 1537 1539 1540 1540 1540 1540 1539 1539 1537 1536 1535 1533 1531 1529 1526 1523 1521 1519 1517 1513
1457 1459 1457 1462 1470 1470 1469 1469 1470 1472 1474 1476 1480 1486 1492 1494 1503 1510 1517 1521 1526 1529 1532 1534 1536 1538 1539 1538 1538 1537 1535 1534 1532 1530 1529 1526 1524 1522 1520 1517 1514 1511 1509 1506
1456 1457 1460 1471 1473 1471 1472 1472 1474 1477 1480 1482 1488 1494 1498 1502 1508 1513 1518 1523 1526 1529 1532 1533 1535 1536 1536 1535 1534 1532 1530 1529 1527 1525 1523 1520 1518 1515 1513 1511 1508 1505 1503 1500
1459 1455 1451 1447 1458 1462 1471 1476 1480 1481 1485 1491 1493 1499 1505 1508 1511 1516 1520 1524 1527 1529 1531 1532 1533 1533 1532 1530 1529 1527 1525 1524 1522 1520 1517 1515 1513 1510 1508 1505 1502 1500 1497 1495
Wind_Speed
16 11 18 23 20 8 14 14 12 5 5 7 6 10 12 12 11 11 10 8 6 5 4 3 3 2 1 3 5 6 10 13 16 16 17 15 14 13 11 8 7 4 2 2
7 19 18 15 12 9 14 15 8 6 6 4 9 9 10 13 12 13 13 11 10 8 5 4 4 5 5 5 5 6 9 14 17 16 16 17 15 13 11 11 9 7 5 3
15 8 12 15 15 12 12 18 13 8 9 3 10 5 10 13 12 12 13 12 11 10 9 8 8 8 8 7 7 8 10 12 15 16 15 15 14 13 12 10 8 6 5 4
12 5 18 15 20 17 16 12 14 17 15 9 9 9 10 16 15 18 19 18 15 13 11 10 10 10 11 10 9 9 10 11 13 15 15 13 13 12 11 10 7 6 4 3
11 16 18 20 24 20 11 13 15 15 14 5 8 6 7 12 15 22 28 24 19 16 14 13 12 12 13 13 12 11 11 11 12 12 13 13 13 12 11 9 6 5 4 3
10 2 15 18 16 17 18 12 10 5 6 9 16 12 16 10 13 18 27 26 23 19 16 14 14 14 13 14 13 13 13 13 13 13 13 12 11 10 9 8 7 6 5 4
12 8 5 8 11 15 14 14 4 6 6 10 8 10 17 9 7 9 29 31 26 22 19 18 16 15 15 14 14 14 14 14 14 14 13 13 12 11 9 9 8 7 6 6
12 10 14 13 12 12 24 22 8 13 9 12 7 9 5 3 0 4 23 29 28 24 20 19 18 17 16 15 14 14 14 15 14 13 13 13 12 11 10 9 8 7 7 6
9 13 8 16 8 16 15 20 21 9 2 8 10 4 4 5 5 13 23 29 28 24 22 21 20 19 17 16 15 15 14 13 13 12 12 11 10 9 8 7 7 6 6 6
3 5 4 9 6 13 12 17 13 9 7 12 6 10 10 13 17 17 22 28 27 25 22 21 21 20 19 17 16 14 13 12 11 10 9 8 7 7 6 5 5 4 5 5
8 7 2 5 15 18 8 15 13 12 14 12 15 9 4 1 19 20 25 28 27 25 23 22 22 21 19 17 15 14 12 11 9 8 7 6 5 4 3 3 3 5 6 7
12 4 8 12 3 4 6 20 22 10 17 18 16 11 2 2 16 27 28 28 26 24 23 23 23 21 19 17 15 13 11 9 8 6 4 3 1 1 3 4 6 8 9 10
3 5 4 3 3 2 6 6 4 17 3 16 12 6 2 10 18 24 29 29 27 25 23 23 23 20 18 16 14 12 10 8 6 4 2 0 2 5 6 8 9 9 9 10
5 3 7 10 3 5 11 15 10 10 10 12 17 7 7 13 18 24 28 29 28 27 26 25 23 20 17 15 12 10 8 5 3 2 2 4 6 7 7 7 8 8 9 10
4 5 3 3 2 1 2 14 19 14 14 13 9 11 10 18 19 26 29 29 28 25 26 25 22 19 16 13 11 8 5 3 2 4 6 6 6 6 7 7 8 9 11 12
1 3 2 3 1 5 4 8 13 23 23 10 3 3 1 21 25 28 30 31 29 27 26 24 21 18 15 12 8 5 3 3 4 6 6 6 6 7 8 9 11 12 14 15
3 2 3 5 4 3 7 13 14 8 5 7 12 5 17 19 23 27 30 29 29 29 27 24 20 17 12 8 5 3 4 5 4 5 6 6 7 9 11 12 13 15 16 17
4 5 1 1 6 6 1 3 4 2 3 5 7 15 18 20 23 24 26 31 31 29 28 24 19 14 9 6 4 4 5 5 4 6 7 9 10 12 13 15 16 18 19 20
7 4 4 4 6 3 1 1 2 6 5 5 11 14 24 31 28 15 21 29 30 27 24 19 15 11 9 6 4 4 5 5 6 9 10 12 14 16 17 19 20 22 23 24
3 3 3 4 4 7 3 1 3 4 5 9 15 21 26 28 9 7 24 26 26 22 19 17 13 10 7 5 4 4 6 6 9 11 14 16 18 20 21 22 24 25 27 28
4 3 9 6 4 1 1 2 3 5 2 10 19 23 26 5 7 31 29 26 22 20 17 15 10 7 5 4 4 5 7 9 12 14 17 19 21 22 24 26 27 28 29 31
4 6 4 2 3 7 4 1 2 5 9 17 19 20 20 30 38 34 28 24 21 18 13 10 8 5 2 4 6 8 11 13 16 17 19 21 23 25 26 28 28 29 29 30
3 2 1 3 2 3 5 3 9 11 20 17 25 22 36 39 34 31 27 22 17 14 11 8 5 2 2 6 9 11 14 16 19 20 22 23 25 26 27 28 28 28 27 28
2 1 3 3 4 4 5 9 15 20 26 28 32 35 36 38 31 27 23 19 15 11 8 5 2 2 4 7 11 15 17 20 22 23 24 24 26 26 26 26 27 28 27 27
1 4 6 4 2 11 9 16 24 31 32 32 30 30 31 31 28 24 21 16 12 8 5 2 2 5 8 11 14 16 18 20 21 22 23 23 23 24 24 23 23 24 24 23
1 2 2 2 10 7 15 27 31 32 30 30 32 31 27 24 25 20 17 13 9 5 2 3 6 8 10 12 14 15 17 19 19 19 19 19 19 18 18 18 21 19 19 20
Wind_Direction
186 186 200 196 202 249 204 194 167 140 148 159 199 162 179 178 181 182 180 173 163 176 165 159 156 129 72 266 242 227 222 200 191 183 175 172 171 162 169 176 182 206 231 299
175 214 209 201 190 169 185 174 158 119 159 213 174 178 178 192 204 199 191 186 182 173 164 173 170 174 176 169 178 184 184 182 181 181 182 175 170 167 167 168 178 179 171 171
200 213 176 182 189 176 193 196 178 170 150 51 155 210 205 211 209 205 203 197 191 182 173 178 173 169 165 159 158 163 166 173 176 176 178 169 166 164 162 162 158 155 154 153
224 188 184 192 200 200 206 218 173 145 167 210 211 228 196 191 206 211 203 197 190 180 178 174 168 164 160 158 148 143 157 158 165 169 169 169 169 167 160 158 153 149 141 135
201 186 190 200 204 198 218 155 164 175 203 198 196 247 148 172 214 212 204 195 187 181 173 169 169 163 156 153 148 143 143 147 151 155 163 162 162 153 147 143 140 137 133 120
220 247 192 203 213 194 135 110 100 141 204 236 216 213 232 188 205 201 195 192 183 176 170 170 169 163 156 152 151 145 142 143 139 145 147 148 150 145 142 140 136 125 115 104
201 193 187 159 138 153 166 164 160 199 208 235 215 215 240 175 184 205 183 182 179 173 169 169 166 163 159 154 150 149 149 145 142 141 139 139 137 132 133 131 123 110 99 90
196 209 187 187 192 182 196 192 194 214 211 213 165 225 219 102 187 193 176 175 172 170 169 168 167 164 162 157 152 147 144 143 141 138 138 133 131 127 123 116 107 101 88 73
209 227 192 179 164 163 196 215 214 250 351 242 206 216 191 154 154 154 163 169 170 168 166 168 169 168 164 162 158 153 148 144 140 137 132 129 125 118 111 102 91 80 66 53
232 250 182 177 174 207 211 189 204 212 207 227 200 240 234 204 189 170 171 174 168 164 161 164 168 168 165 163 159 155 151 146 143 137 131 125 117 108 97 82 64 47 30 17
195 211 155 170 206 193 182 199 208 219 228 236 248 237 27 250 184 175 173 172 167 164 162 162 166 168 167 164 161 158 154 151 145 139 135 126 114 97 74 41 12 358 349 342
191 187 210 203 58 351 256 213 208 215 214 231 254 255 21 258 172 168 168 168 167 165 163 166 169 168 167 166 162 159 156 153 150 146 140 128 98 21 350 340 335 331 328 325
186 207 169 173 267 238 217 196 251 229 257 221 217 212 47 123 149 165 165 167 164 161 160 165 168 168 167 165 163 161 160 159 159 161 164 274 323 324 324 323 324 325 326 326
339 263 231 233 222 144 198 204 203 206 217 221 231 219 175 163 162 164 166 164 160 163 166 168 168 168 167 165 164 163 164 167 178 216 283 303 309 312 315 318 322 325 326 325
201 241 285 300 3 152 271 199 196 204 214 213 225 208 188 179 167 165 160 158 158 159 165 168 167 165 164 162 162 165 173 192 242 285 299 306 311 314 316 318 319 319 319 317
285 219 168 254 215 273 229 233 221 211 222 243 142 210 122 148 149 154 158 157 156 161 163 165 164 161 158 159 162 174 200 255 286 294 297 302 308 310 311 312 310 308 307 306
200 212 183 249 144 144 273 222 201 197 190 230 208 135 147 149 160 164 159 159 156 159 162 163 158 156 159 163 172 212 264 279 285 287 290 297 300 297 296 298 300 301 304 305
207 190 198 139 168 217 47 2 344 167 103 113 89 136 147 143 142 148 155 158 163 164 164 167 170 173 184 196 217 260 271 277 285 282 285 290 292 295 298 301 302 300 301 302
225 168 176 200 215 334 157 180 189 207 182 160 135 122 117 119 120 110 154 169 169 169 168 173 185 192 203 226 259 270 274 290 294 288 295 296 298 301 301 300 299 299 298 298
208 244 234 172 228 217 76 90 346 312 243 159 146 142 141 146 150 146 157 162 159 161 171 181 183 189 219 249 254 261 285 306 293 295 298 299 299 297 296 296 296 295 295 294
177 181 214 205 224 234 73 342 324 189 109 138 147 143 148 133 99 146 148 146 152 161 165 168 176 198 219 241 273 296 308 302 297 297 298 298 297 296 295 295 296 295 295 295
196 179 187 147 211 235 13 94 221 107 109 127 122 127 115 121 130 138 143 145 148 149 154 162 166 176 207 288 305 308 309 303 302 300 299 298 298 298 298 297 297 296 296 296
218 350 81 358 34 24 6 46 128 122 129 121 128 131 135 128 130 135 137 138 141 142 142 140 132 102 330 314 311 309 303 303 302 302 303 302 301 301 300 299 298 296 295 293
138 203 92 192 43 40 61 112 127 136 127 124 123 127 132 128 131 130 131 131 130 125 117 103 71 4 309 306 303 304 306 304 305 306 306 305 304 303 301 300 300 300 298 294
18 168 123 88 97 108 90 120 130 127 123 120 121 124 124 125 124 125 123 121 119 116 112 84 333 320 312 308 309 308 305 307 308 309 310 309 308 308 307 306 304 301 299 297
223 124 200 122 167 107 141 135 134 130 125 124 125 122 119 120 119 120 118 118 118 111 74 352 333 325 322 323 321 315 316 316 316 317 319 319 316 316 316 314 315 315 305 298